{"data":{"norad_id":64732,"intl_designator":"2025-144J","name":"STARLINK-34596","alt_names":[],"object_type":"PAYLOAD","status":"ACTIVE","operator":null,"country":"US","launch_date":"2025-07-02","launch_site_code":"AFETR","launch_vehicle":null,"mission":null,"orbit_class":"UNKNOWN","rcs_meters":null,"size_class":null,"mass_kg":null,"dimensions":null,"purposes":["comms"],"wikipedia_slug":null,"has_3d_model":false,"image_url":null,"decayed_at":null,"tle_current":{"epoch":"2026-09-20T12:57:52.365024Z","epoch_age_seconds":124470,"freshness":"FRESH","line1":"1 64732U 25144J   26263.54018941  .00017443  00000+0  52598-3 0  9999","line2":"2 64732  53.1605 353.1968 0000981  85.5167 274.5948 15.34411047 69586","mean_motion":15.34411047,"eccentricity":9.81e-5,"inclination_deg":53.1605,"raan_deg":353.1968,"arg_perigee_deg":85.5167,"mean_anomaly_deg":274.5948,"bstar":0.00052598,"rev_number":6958,"period_min":93.847082423931,"perigee_km":461.99932318548,"apogee_km":463.34148959861,"semimajor_km":6840.807406392,"source":"CELESTRAK","updated_at":"2026-09-21T09:00:35.410447Z"}}}